Location: Unspecified
(0.0000°N, 0.0000°E)
Time: 02:34:40
(UTC+00:00)

O/OREOS (USA 219) - Pass Details

Date: 13 December 2019
Orbit: 621 x 646 km, 72.0° (Epoch: 22 May)

Event Time Altitude Azimuth Distance (km) Brightness Sun altitude
Rises 19:07:22 0° 166° (SSE) 2,919 ? -16.8°
Reaches altitude 10° 19:10:17 10° 147° (SSE) 2,014 ? -17.4°
Enters shadow 19:12:16 17° 122° (ESE) 1,628 ? -17.9°
